This is the latest recevied weather packets stored in our database for station/object OE7BJT-13. If no packets are shown the sender has not sent any weather packets the latest 10 day(s).
| Time | Temp. | Humidity | Pressure | Rain* | Wind** | Luminosity | Snow |
|---|---|---|---|---|---|---|---|
| 1777697775 | 5° C | 95% | 1025 hPa | - | - | - | - |
| 1777697170 | 4.44° C | 10% | - | - | - | - | - |
| 1777696564 | 4.44° C | 99% | 1025 hPa | - | - | - | - |
| 1777695959 | 3.89° C | 98% | 1025 hPa | - | - | - | - |
| 1777695353 | 3.89° C | 99% | 1025 hPa | - | - | - | - |
| 1777694747 | 4.44° C | 97% | 1024 hPa | - | - | - | - |
| 1777694142 | 4.44° C | 98% | 1025 hPa | - | - | - | - |
| 1777692930 | 3.89° C | 99% | 1024 hPa | - | - | - | - |
| 1777692325 | 3.89° C | 97% | 1024 hPa | - | - | - | - |
| 1777691719 | 4.44° C | 97% | 1024 hPa | - | - | - | - |
| 1777690508 | 4.44° C | 98% | 1025 hPa | - | - | - | - |
| 1777689902 | 4.44° C | 96% | 1025 hPa | - | - | - | - |
| 1777689297 | 5° C | 93% | 1025 hPa | - | - | - | - |
| 1777688086 | 5° C | 94% | 1025 hPa | - | - | - | - |
| 1777687480 | 5° C | 97% | 1025 hPa | - | - | - | - |
| 1777686874 | 5° C | 94% | 1025 hPa | - | - | - | - |
| 1777686269 | 3.89° C | 10% | - | - | - | - | - |
| 1777685663 | 5° C | 93% | 1025 hPa | - | - | - | - |
| 1777685057 | 5.56° C | 91% | 1025 hPa | - | - | - | - |
| 1777683846 | 5.56° C | 91% | 1025 hPa | - | - | - | - |
| 1777683241 | 5.56° C | 90% | 1025 hPa | - | - | - | - |
| 1777682635 | 5.56° C | 90% | 1025 hPa | - | - | - | - |
| 1777682029 | 6.11° C | 87% | 1025 hPa | - | - | - | - |
| 1777681424 | 6.11° C | 87% | 1025 hPa | - | - | - | - |
| 1777680818 | 6.67° C | 88% | 1025 hPa | - | - | - | - |
* Rain since midnight (hover to see other rain measurements)
** Current wind speed in m/s (hover to see current wind gust speed)